Location: Unspecified
(0.0000°N, 0.0000°E)
Time: 09:52:54
(UTC+00:00)

Vanguard 2 - Pass Details

Date: 15 December 2017
Orbit: 554 x 2939 km, 32.9° (Epoch: 24 June)

Event Time Altitude Azimuth Distance (km) Brightness Sun altitude
Exits shadow 02:13:18 19° 199° (SSW) 3,352 10.8 -49.2°
Maximum altitude 02:13:52 19° 195° (SSW) 3,400 10.8 -49.0°
Drops below altitude 10° 02:22:08 10° 156° (SSE) 4,811 12.0 -47.4°
Sets 02:28:31 0° 140° (SE) 6,257 12.9 -46.1°
